QPF
0.00 0.00 0.00 0.00 0.00 0.00 0.00 0.00 0.00 0.00 0.00 0.00 0.00 0.00 0.00 0.00 0.00 0.00 0.00 0.00 0.00 0.00 0.01 0.01 0.02 0.04 0.05 0.06 0.03 0.00 0.00 0.00 0.00 0.00 0.00 0.00 0.00 0.00 0.00 0.00 0.00 0.00 0.00
0.00 0.00 0.00 0.00 0.00 0.00 0.00 0.00 0.00 0.00 0.00 0.00 0.00 0.00 0.00 0.00 0.00 0.00 0.00 0.00 0.00 0.00 0.01 0.01 0.01 0.01 0.01 0.00 0.00 0.00 0.00 0.00 0.00 0.00 0.00 0.00 0.00 0.00 0.00 0.00 0.00 0.00 0.00
0.00 0.00 0.00 0.00 0.01 0.00 0.00 0.00 0.00 0.00 0.00 0.00 0.00 0.00 0.00 0.00 0.00 0.00 0.00 0.00 0.00 0.01 0.01 0.01 0.01 0.01 0.00 0.00 0.00 0.00 0.00 0.00 0.00 0.00 0.00 0.00 0.00 0.00 0.00 0.00 0.00 0.00 0.00
0.00 0.00 0.00 0.00 0.00 0.01 0.00 0.00 0.00 0.00 0.00 0.00 0.00 0.00 0.00 0.00 0.00 0.00 0.00 0.00 0.01 0.01 0.01 0.01 0.01 0.00 0.00 0.00 0.00 0.00 0.00 0.00 0.00 0.00 0.00 0.00 0.00 0.00 0.00 0.00 0.00 0.00 0.00
0.00 0.00 0.00 0.00 0.00 0.00 0.00 0.00 0.00 0.00 0.00 0.00 0.00 0.00 0.00 0.00 0.00 0.00 0.00 0.01 0.00 0.00 0.01 0.00 0.00 0.00 0.00 0.00 0.00 0.00 0.00 0.00 0.00 0.00 0.00 0.00 0.00 0.00 0.00 0.00 0.00 0.00 0.01
0.00 0.00 0.00 0.00 0.00 0.01 0.01 0.00 0.00 0.00 0.00 0.00 0.00 0.01 0.00 0.01 0.00 0.00 0.01 0.00 0.00 0.00 0.00 0.00 0.00 0.00 0.00 0.00 0.00 0.00 0.00 0.00 0.00 0.00 0.00 0.00 0.00 0.00 0.00 0.00 0.00 0.00 0.00
0.01 0.00 0.01 0.03 0.03 0.04 0.01 0.00 0.00 0.00 0.01 0.02 0.02 0.02 0.02 0.02 0.01 0.01 0.00 0.00 0.00 0.00 0.00 0.00 0.00 0.00 0.00 0.00 0.00 0.00 0.00 0.00 0.00 0.00 0.00 0.00 0.00 0.00 0.00 0.00 0.00 0.00 0.00
0.10 0.04 0.02 0.07 0.04 0.05 0.02 0.00 0.00 0.00 0.00 0.02 0.04 0.04 0.03 0.04 0.02 0.00 0.00 0.00 0.00 0.00 0.00 0.00 0.00 0.00 0.00 0.00 0.00 0.00 0.00 0.00 0.00 0.00 0.00 0.00 0.00 0.00 0.00 0.00 0.00 0.00 0.00
0.08 0.26 0.17 0.15 0.15 0.09 0.04 0.00 0.01 0.00 0.00 0.00 0.02 0.05 0.06 0.02 0.01 0.00 0.00 0.00 0.00 0.00 0.00 0.00 0.00 0.00 0.00 0.00 0.00 0.00 0.00 0.00 0.00 0.00 0.00 0.00 0.00 0.00 0.00 0.00 0.00 0.00 0.00
0.01 0.10 0.19 0.33 0.27 0.22 0.13 0.08 0.05 0.05 0.03 0.00 0.00 0.00 0.02 0.01 0.01 0.00 0.00 0.00 0.00 0.00 0.00 0.00 0.00 0.00 0.00 0.00 0.00 0.00 0.00 0.00 0.00 0.00 0.00 0.00 0.00 0.00 0.00 0.00 0.00 0.00 0.00
0.00 0.01 0.04 0.11 0.29 0.33 0.24 0.19 0.19 0.17 0.14 0.05 0.00 0.00 0.00 0.00 0.00 0.00 0.00 0.00 0.00 0.00 0.00 0.00 0.00 0.00 0.00 0.00 0.00 0.00 0.00 0.00 0.00 0.00 0.00 0.00 0.00 0.00 0.00 0.00 0.00 0.00 0.00
0.00 0.00 0.00 0.02 0.09 0.24 0.32 0.24 0.21 0.25 0.14 0.05 0.00 0.00 0.00 0.00 0.00 0.00 0.00 0.00 0.00 0.00 0.00 0.00 0.00 0.00 0.00 0.00 0.00 0.00 0.00 0.00 0.00 0.00 0.00 0.00 0.00 0.00 0.00 0.00 0.00 0.00 0.00
0.00 0.00 0.00 0.00 0.02 0.09 0.21 0.27 0.19 0.17 0.22 0.13 0.03 0.00 0.00 0.00 0.00 0.00 0.00 0.00 0.00 0.00 0.00 0.00 0.00 0.00 0.00 0.00 0.00 0.00 0.00 0.00 0.00 0.00 0.00 0.00 0.00 0.00 0.00 0.00 0.00 0.00 0.00
0.00 0.00 0.00 0.00 0.00 0.03 0.12 0.16 0.22 0.11 0.10 0.10 0.08 0.01 0.00 0.00 0.00 0.00 0.00 0.00 0.00 0.00 0.00 0.00 0.00 0.00 0.00 0.00 0.00 0.00 0.00 0.00 0.00 0.00 0.00 0.00 0.00 0.00 0.00 0.00 0.00 0.00 0.00
0.00 0.00 0.00 0.00 0.00 0.00 0.03 0.10 0.16 0.12 0.08 0.07 0.09 0.04 0.00 0.00 0.00 0.00 0.00 0.00 0.00 0.00 0.00 0.00 0.00 0.00 0.00 0.00 0.00 0.00 0.00 0.00 0.00 0.00 0.00 0.00 0.00 0.00 0.00 0.00 0.00 0.00 0.00
0.00 0.00 0.00 0.00 0.00 0.00 0.00 0.06 0.12 0.12 0.05 0.04 0.03 0.02 0.00 0.00 0.00 0.00 0.00 0.00 0.00 0.00 0.00 0.00 0.00 0.00 0.00 0.00 0.00 0.00 0.00 0.00 0.00 0.00 0.00 0.00 0.00 0.00 0.00 0.00 0.00 0.00 0.00
0.00 0.00 0.00 0.00 0.00 0.00 0.00 0.00 0.06 0.12 0.12 0.02 0.03 0.01 0.01 0.00 0.00 0.00 0.00 0.00 0.00 0.00 0.00 0.00 0.00 0.00 0.00 0.00 0.00 0.00 0.00 0.00 0.00 0.00 0.00 0.00 0.00 0.00 0.00 0.00 0.00 0.00 0.00
0.00 0.00 0.00 0.00 0.00 0.00 0.00 0.00 0.01 0.08 0.14 0.10 0.06 0.06 0.05 0.01 0.00 0.00 0.00 0.00 0.00 0.00 0.00 0.00 0.00 0.00 0.00 0.00 0.00 0.00 0.00 0.00 0.00 0.00 0.00 0.00 0.00 0.00 0.00 0.00 0.00 0.01 0.05
0.00 0.00 0.00 0.00 0.00 0.00 0.00 0.00 0.00 0.03 0.09 0.09 0.07 0.05 0.04 0.06 0.01 0.00 0.00 0.00 0.00 0.00 0.00 0.00 0.00 0.00 0.00 0.00 0.00 0.00 0.00 0.00 0.00 0.00 0.00 0.00 0.00 0.00 0.00 0.00 0.00 0.00 0.00
0.00 0.00 0.00 0.00 0.00 0.00 0.00 0.00 0.00 0.00 0.04 0.09 0.04 0.04 0.03 0.03 0.03 0.00 0.00 0.00 0.00 0.00 0.00 0.00 0.00 0.00 0.00 0.00 0.00 0.00 0.00 0.00 0.00 0.00 0.00 0.00 0.00 0.00 0.00 0.00 0.00 0.00 0.00
0.00 0.00 0.00 0.00 0.00 0.00 0.00 0.00 0.00 0.00 0.00 0.01 0.03 0.02 0.03 0.05 0.06 0.06 0.03 0.01 0.00 0.00 0.00 0.00 0.00 0.00 0.00 0.00 0.00 0.00 0.00 0.00 0.00 0.00 0.00 0.00 0.00 0.00 0.00 0.00 0.00 0.00 0.00
0.00 0.00 0.00 0.00 0.00 0.00 0.00 0.00 0.00 0.00 0.00 0.00 0.00 0.02 0.03 0.03 0.04 0.05 0.07 0.06 0.02 0.00 0.00 0.00 0.00 0.00 0.00 0.00 0.00 0.00 0.00 0.00 0.00 0.00 0.00 0.00 0.00 0.00 0.00 0.00 0.00 0.00 0.00
0.00 0.00 0.00 0.00 0.00 0.00 0.00 0.00 0.00 0.00 0.00 0.00 0.00 0.04 0.03 0.02 0.02 0.04 0.05 0.07 0.05 0.00 0.00 0.00 0.00 0.00 0.00 0.00 0.00 0.00 0.00 0.00 0.00 0.00 0.00 0.00 0.00 0.00 0.00 0.00 0.00 0.00 0.00
0.00 0.00 0.00 0.00 0.00 0.00 0.00 0.00 0.00 0.00 0.00 0.00 0.00 0.00 0.01 0.02 0.01 0.03 0.06 0.07 0.06 0.03 0.00 0.00 0.00 0.00 0.00 0.00 0.00 0.00 0.00 0.00 0.00 0.00 0.00 0.00 0.00 0.00 0.00 0.00 0.00 0.00 0.00
0.00 0.00 0.00 0.00 0.00 0.00 0.00 0.00 0.00 0.00 0.00 0.00 0.00 0.00 0.00 0.00 0.01 0.01 0.02 0.05 0.06 0.04 0.01 0.00 0.00 0.00 0.00 0.00 0.00 0.00 0.00 0.00 0.00 0.00 0.00 0.00 0.00 0.00 0.00 0.00 0.00 0.00 0.00
0.00 0.00 0.00 0.00 0.00 0.00 0.00 0.00 0.00 0.00 0.00 0.00 0.00 0.00 0.00 0.00 0.00 0.00 0.01 0.03 0.02 0.02 0.01 0.00 0.00 0.00 0.00 0.00 0.00 0.00 0.00 0.00 0.00 0.00 0.00 0.00 0.00 0.00 0.00 0.00 0.00 0.00 0.00
MSLP
1011.84 1011.59 1011.73 1011.93 1012.23 1012.58 1012.95 1013.32 1013.71 1014.01 1014.24 1014.40 1014.75 1015.11 1015.37 1015.63 1015.92 1016.16 1016.38 1016.38 1016.62 1016.82 1016.81 1016.96 1017.23 1017.42 1017.61 1017.91 1018.09 1018.36 1018.56 1018.75 1018.93 1019.05 1019.03 1019.06 1019.04 1019.06 1019.12 1019.13 1019.13 1019.09 1019.02
1011.54 1011.71 1011.98 1012.17 1012.50 1012.91 1013.13 1013.42 1013.72 1014.21 1014.58 1014.73 1014.92 1015.27 1015.65 1015.83 1016.08 1016.29 1016.43 1016.59 1016.64 1016.88 1017.05 1017.21 1017.43 1017.74 1018.02 1018.35 1018.70 1018.94 1019.09 1019.25 1019.40 1019.45 1019.47 1019.46 1019.41 1019.40 1019.49 1019.44 1019.50 1019.48 1019.47
1011.37 1011.65 1012.04 1012.40 1012.78 1013.18 1013.45 1013.73 1014.00 1014.20 1014.69 1015.00 1015.17 1015.38 1015.67 1015.94 1016.05 1016.27 1016.61 1016.65 1016.82 1016.98 1017.42 1017.61 1017.74 1018.08 1018.47 1018.78 1019.13 1019.40 1019.47 1019.65 1019.79 1019.88 1019.83 1019.77 1019.82 1019.81 1019.77 1019.91 1019.93 1019.83 1019.91
1011.44 1011.69 1012.14 1012.41 1012.78 1013.27 1013.69 1014.00 1014.30 1014.51 1014.72 1015.20 1015.36 1015.64 1015.80 1016.08 1016.27 1016.50 1016.68 1016.86 1017.06 1017.24 1017.56 1017.99 1018.17 1018.50 1018.91 1019.15 1019.43 1019.66 1019.82 1019.99 1020.08 1020.18 1020.30 1020.15 1020.06 1020.10 1020.18 1020.27 1020.26 1020.34 1020.30
1012.08 1011.73 1012.18 1012.54 1012.86 1013.29 1013.75 1014.23 1014.48 1014.76 1015.01 1015.23 1015.51 1015.71 1016.04 1016.21 1016.42 1016.72 1016.94 1017.14 1017.34 1017.58 1017.72 1018.28 1018.75 1018.95 1019.15 1019.41 1019.67 1019.93 1020.09 1020.30 1020.43 1020.50 1020.58 1020.54 1020.42 1020.54 1020.59 1020.73 1020.65 1020.76 1020.73
1012.30 1012.44 1012.21 1012.62 1012.98 1013.34 1013.72 1014.15 1014.56 1014.87 1015.13 1015.32 1015.73 1015.88 1016.09 1016.33 1016.57 1016.83 1017.21 1017.49 1017.84 1017.91 1018.04 1018.40 1019.00 1019.12 1019.34 1019.66 1019.93 1020.18 1020.38 1020.62 1020.82 1021.02 1021.04 1020.79 1020.82 1020.89 1020.89 1021.03 1021.07 1021.16 1021.23
1012.45 1012.49 1012.73 1012.67 1012.89 1013.24 1013.64 1014.07 1014.43 1014.77 1015.15 1015.51 1015.69 1015.94 1016.22 1016.48 1016.79 1017.05 1017.40 1017.79 1018.06 1018.25 1018.37 1018.66 1019.10 1019.36 1019.61 1019.83 1020.20 1020.44 1020.73 1021.00 1021.26 1021.43 1021.47 1021.27 1021.15 1021.21 1021.25 1021.26 1021.37 1021.57 1021.62
1012.77 1012.64 1012.68 1012.70 1013.01 1013.27 1013.57 1014.02 1014.34 1014.68 1015.00 1015.53 1015.90 1016.13 1016.36 1016.66 1016.98 1017.37 1017.61 1018.02 1018.31 1018.54 1018.82 1018.96 1019.17 1019.59 1019.86 1020.08 1020.42 1020.77 1021.02 1021.28 1021.56 1021.71 1021.67 1021.53 1021.54 1021.61 1021.62 1021.66 1021.75 1021.77 1021.88
1013.01 1012.89 1012.56 1012.86 1013.09 1013.08 1013.54 1013.96 1014.22 1014.69 1015.06 1015.38 1015.83 1016.30 1016.58 1016.92 1017.17 1017.51 1017.87 1018.16 1018.52 1018.92 1019.14 1019.36 1019.33 1019.65 1020.03 1020.34 1020.63 1021.08 1021.32 1021.54 1021.84 1021.93 1021.93 1021.89 1021.75 1021.83 1021.96 1021.97 1022.03 1022.04 1022.26
1013.67 1013.37 1013.22 1012.88 1013.11 1013.33 1013.67 1013.93 1014.29 1014.55 1015.03 1015.44 1015.72 1016.08 1016.67 1017.02 1017.34 1017.68 1017.98 1018.28 1018.64 1019.08 1019.44 1019.66 1019.65 1019.81 1020.20 1020.54 1020.85 1021.26 1021.60 1021.79 1022.05 1022.16 1022.18 1022.06 1021.98 1022.04 1022.13 1022.38 1022.44 1022.45 1022.57
1014.07 1013.99 1013.75 1013.47 1013.37 1013.37 1013.47 1013.82 1014.31 1014.48 1014.95 1015.38 1015.91 1016.28 1016.57 1017.05 1017.56 1017.93 1018.10 1018.38 1018.73 1019.10 1019.57 1019.73 1019.98 1020.09 1020.36 1020.70 1021.01 1021.45 1021.76 1022.15 1022.30 1022.42 1022.39 1022.19 1022.21 1022.33 1022.52 1022.66 1022.79 1022.79 1022.87
1015.01 1014.49 1014.27 1013.92 1013.73 1013.66 1013.52 1013.82 1014.15 1014.57 1014.93 1015.39 1015.93 1016.42 1016.86 1017.05 1017.32 1017.91 1018.38 1018.61 1018.79 1019.12 1019.55 1019.90 1020.11 1020.41 1020.65 1021.00 1021.43 1021.61 1022.07 1022.29 1022.43 1022.51 1022.47 1022.29 1022.36 1022.53 1022.69 1022.89 1023.02 1023.13 1023.13
1015.39 1014.80 1014.41 1014.33 1014.05 1013.85 1013.73 1014.06 1014.30 1014.57 1015.01 1015.45 1015.85 1016.31 1016.75 1017.30 1017.71 1017.96 1018.37 1018.80 1019.15 1019.27 1019.67 1020.05 1020.36 1020.72 1021.01 1021.29 1021.64 1021.96 1022.22 1022.45 1022.49 1022.50 1022.44 1022.45 1022.53 1022.71 1022.89 1023.03 1023.11 1023.24 1023.31
1015.50 1015.03 1014.57 1014.38 1014.38 1014.06 1013.96 1013.87 1014.14 1014.45 1014.94 1015.29 1015.71 1016.10 1016.49 1017.17 1017.78 1018.03 1018.38 1018.72 1019.06 1019.45 1019.72 1020.13 1020.71 1020.87 1021.22 1021.41 1021.62 1022.03 1022.28 1022.45 1022.66 1022.59 1022.59 1022.58 1022.62 1022.77 1022.94 1023.05 1023.20 1023.27 1023.39
1015.50 1015.09 1014.69 1014.51 1014.42 1014.21 1013.98 1013.85 1013.62 1014.03 1014.55 1015.04 1015.59 1015.91 1016.32 1016.98 1017.49 1018.04 1018.35 1018.76 1019.01 1019.37 1019.68 1020.22 1020.67 1021.11 1021.33 1021.49 1021.62 1021.92 1022.20 1022.40 1022.56 1022.61 1022.64 1022.67 1022.74 1022.85 1022.96 1023.09 1023.19 1023.29 1023.32
1015.00 1014.88 1014.54 1014.42 1014.25 1014.04 1014.07 1013.86 1013.73 1013.57 1014.09 1014.70 1015.37 1015.46 1015.89 1016.53 1017.20 1017.93 1018.38 1018.73 1019.16 1019.32 1019.62 1020.06 1020.49 1020.90 1021.29 1021.44 1021.60 1021.82 1022.07 1022.28 1022.41 1022.59 1022.69 1022.74 1022.83 1022.89 1022.92 1022.95 1023.01 1023.20 1023.24
1014.33 1014.18 1014.14 1014.13 1014.02 1014.01 1013.90 1013.81 1013.58 1013.28 1013.67 1014.28 1014.72 1015.15 1015.51 1015.92 1016.58 1017.38 1018.02 1018.70 1018.96 1019.41 1019.71 1020.11 1020.67 1020.82 1021.12 1021.37 1021.56 1021.76 1021.95 1022.18 1022.32 1022.46 1022.65 1022.79 1022.85 1022.89 1022.98 1022.94 1022.90 1022.96 1023.01
1013.83 1013.72 1013.52 1013.51 1013.58 1013.62 1013.65 1013.56 1013.37 1013.25 1013.17 1013.62 1014.18 1014.74 1015.13 1015.57 1016.06 1016.92 1017.45 1018.18 1018.80 1019.45 1019.87 1020.17 1020.46 1021.03 1021.10 1021.29 1021.49 1021.73 1021.83 1022.09 1022.19 1022.29 1022.52 1022.65 1022.81 1022.91 1022.98 1023.01 1023.00 1022.93 1022.98
1013.20 1013.14 1012.98 1013.01 1013.10 1013.15 1013.16 1013.13 1013.09 1012.85 1012.91 1013.05 1013.72 1014.20 1014.79 1015.23 1015.61 1016.40 1017.13 1017.81 1018.37 1019.18 1019.75 1020.22 1020.54 1020.82 1021.26 1021.37 1021.43 1021.62 1021.78 1021.96 1022.10 1022.17 1022.36 1022.50 1022.59 1022.81 1022.97 1022.96 1022.95 1022.95 1023.01
1012.28 1012.37 1012.32 1012.23 1012.40 1012.60 1012.73 1012.80 1012.93 1012.91 1012.59 1012.60 1013.09 1013.63 1014.10 1014.71 1015.15 1015.73 1016.63 1017.25 1017.99 1018.62 1019.57 1020.02 1020.30 1020.70 1020.94 1021.34 1021.53 1021.76 1021.94 1021.94 1022.03 1022.11 1022.17 1022.28 1022.45 1022.54 1022.66 1022.78 1022.87 1022.90 1022.92
1011.38 1011.59 1011.62 1011.73 1011.75 1011.99 1012.33 1012.46 1012.62 1012.41 1012.38 1012.62 1012.76 1013.14 1013.25 1013.81 1014.49 1015.29 1015.84 1016.51 1017.15 1017.95 1018.63 1019.50 1020.09 1020.52 1020.85 1021.25 1021.90 1022.32 1022.30 1022.10 1022.05 1022.04 1022.08 1022.15 1022.25 1022.45 1022.51 1022.64 1022.85 1022.95 1022.95
1010.43 1010.49 1010.67 1010.81 1011.01 1011.15 1011.43 1011.68 1011.75 1011.85 1011.96 1012.14 1012.24 1012.43 1012.44 1013.35 1014.12 1014.65 1015.29 1016.11 1016.69 1017.59 1018.23 1019.03 1019.31 1020.09 1020.50 1020.77 1021.29 1021.84 1022.38 1022.40 1022.17 1022.10 1022.11 1022.24 1022.25 1022.52 1022.67 1022.70 1022.92 1022.98 1023.17
1009.48 1009.47 1009.73 1009.81 1010.10 1010.31 1010.62 1011.03 1011.41 1011.46 1011.61 1011.82 1012.02 1012.19 1012.55 1012.77 1013.45 1014.07 1014.76 1015.55 1016.18 1017.07 1017.76 1018.34 1018.93 1019.11 1019.83 1020.38 1020.46 1020.72 1021.85 1021.87 1022.04 1022.18 1022.13 1022.24 1022.38 1022.58 1022.69 1022.72 1022.85 1023.03 1023.14
1008.26 1008.55 1008.75 1008.93 1009.08 1009.38 1009.73 1010.05 1010.35 1010.62 1010.98 1010.99 1011.27 1011.51 1011.84 1012.17 1012.56 1012.95 1013.90 1014.72 1015.46 1016.36 1016.98 1017.76 1018.31 1018.68 1019.10 1019.76 1020.42 1020.22 1020.18 1020.54 1021.42 1022.29 1022.30 1022.29 1022.29 1022.55 1022.61 1022.66 1022.84 1022.95 1023.25
1007.42 1007.58 1007.65 1007.95 1008.30 1008.43 1008.78 1009.10 1009.48 1009.84 1010.21 1010.37 1010.77 1010.89 1011.21 1011.71 1012.00 1012.35 1012.95 1013.68 1014.68 1015.58 1016.23 1016.94 1017.65 1018.12 1018.46 1018.83 1019.23 1019.89 1020.19 1020.40 1020.65 1021.24 1021.98 1022.27 1022.38 1022.44 1022.48 1022.52 1022.93 1022.97 1023.10
1006.87 1007.00 1007.18 1007.30 1007.25 1007.45 1007.80 1008.22 1008.64 1009.03 1009.48 1009.89 1010.17 1010.45 1010.77 1011.19 1011.68 1011.76 1012.59 1013.22 1013.52 1014.51 1015.51 1016.22 1016.91 1017.59 1017.81 1018.13 1018.53 1018.93 1019.13 1019.68 1020.22 1020.62 1021.30 1021.80 1022.01 1022.31 1022.45 1022.41 1022.72 1022.69 1022.82
Thickness
5757 5763 5763 5764 5764 5763 5762 5760 5759 5757 5756 5756 5754 5752 5751 5749 5748 5747 5746 5746 5745 5743 5743 5741 5740 5738 5736 5733 5731 5730 5729 5728 5726 5725 5724 5724 5724 5722 5721 5720 5719 5718 5716
5757 5758 5758 5759 5759 5758 5758 5758 5757 5754 5752 5752 5752 5750 5748 5747 5746 5745 5745 5744 5744 5743 5742 5740 5739 5737 5734 5730 5727 5726 5725 5724 5723 5722 5722 5721 5721 5720 5719 5718 5716 5715 5713
5753 5754 5754 5754 5754 5753 5753 5753 5753 5753 5750 5748 5748 5747 5746 5745 5745 5745 5742 5744 5743 5742 5739 5737 5737 5734 5731 5728 5725 5723 5722 5721 5720 5719 5719 5719 5718 5718 5717 5715 5713 5712 5710
5749 5749 5749 5750 5750 5748 5748 5748 5747 5748 5747 5744 5744 5744 5744 5742 5742 5741 5741 5740 5741 5740 5737 5734 5733 5731 5728 5725 5723 5721 5721 5719 5718 5718 5717 5717 5716 5715 5714 5712 5711 5708 5707
5742 5745 5744 5744 5744 5744 5743 5742 5743 5743 5743 5742 5741 5741 5740 5740 5740 5738 5737 5737 5737 5736 5736 5732 5729 5728 5726 5724 5721 5719 5719 5717 5716 5716 5715 5715 5714 5712 5711 5709 5708 5705 5703
5740 5738 5741 5739 5739 5739 5739 5739 5738 5738 5739 5739 5737 5738 5737 5737 5736 5736 5734 5734 5732 5732 5732 5731 5727 5726 5724 5722 5719 5717 5716 5715 5714 5713 5712 5712 5711 5709 5708 5706 5704 5701 5699
5737 5738 5736 5737 5737 5736 5735 5735 5735 5735 5735 5734 5735 5734 5733 5733 5733 5732 5731 5730 5729 5728 5728 5727 5724 5723 5722 5720 5717 5715 5713 5712 5711 5710 5709 5708 5708 5706 5705 5703 5701 5698 5695
5732 5733 5735 5736 5734 5732 5732 5731 5730 5731 5731 5729 5729 5729 5730 5729 5729 5728 5728 5726 5725 5725 5722 5722 5722 5719 5719 5718 5715 5712 5711 5709 5708 5707 5706 5705 5704 5702 5701 5699 5698 5695 5692
5725 5729 5733 5731 5731 5731 5730 5727 5728 5726 5725 5726 5725 5724 5725 5724 5725 5724 5723 5723 5721 5719 5718 5717 5719 5717 5716 5714 5712 5709 5708 5706 5705 5704 5703 5702 5701 5700 5697 5696 5695 5693 5689
5714 5720 5723 5727 5726 5726 5725 5725 5723 5723 5721 5720 5721 5721 5720 5720 5720 5720 5720 5719 5718 5716 5714 5713 5715 5714 5712 5711 5709 5707 5704 5703 5702 5701 5700 5699 5698 5696 5694 5692 5690 5688 5685
5705 5709 5713 5718 5720 5721 5721 5721 5719 5719 5717 5717 5716 5716 5717 5716 5715 5714 5715 5716 5715 5714 5711 5710 5709 5710 5709 5708 5707 5704 5702 5700 5698 5697 5696 5695 5694 5692 5690 5688 5686 5684 5681
5689 5696 5703 5708 5712 5715 5716 5715 5714 5713 5713 5712 5711 5711 5710 5711 5713 5711 5710 5710 5710 5711 5709 5706 5706 5705 5705 5704 5701 5700 5698 5697 5695 5694 5693 5693 5691 5690 5688 5685 5682 5680 5677
5680 5688 5694 5698 5703 5707 5710 5710 5709 5708 5708 5707 5707 5706 5705 5704 5704 5706 5706 5704 5705 5706 5706 5703 5702 5702 5702 5700 5698 5696 5694 5693 5693 5692 5691 5689 5688 5686 5684 5682 5679 5676 5673
5671 5678 5685 5690 5693 5698 5701 5705 5705 5705 5703 5704 5703 5702 5701 5699 5699 5701 5701 5702 5701 5702 5703 5701 5697 5698 5697 5696 5695 5693 5692 5690 5688 5689 5688 5686 5685 5683 5681 5679 5677 5674 5670
5662 5669 5674 5680 5684 5688 5693 5697 5703 5703 5701 5699 5697 5698 5697 5695 5694 5694 5695 5696 5698 5698 5699 5697 5695 5692 5693 5693 5692 5691 5690 5688 5686 5686 5685 5683 5682 5680 5678 5675 5673 5670 5667
5655 5660 5668 5671 5677 5681 5685 5690 5695 5698 5698 5696 5692 5698 5696 5692 5689 5688 5689 5690 5691 5693 5694 5694 5693 5691 5689 5690 5689 5688 5687 5685 5684 5682 5682 5680 5679 5677 5675 5673 5671 5667 5664
5645 5653 5659 5665 5669 5673 5677 5681 5686 5692 5693 5693 5692 5691 5692 5691 5687 5684 5684 5682 5685 5686 5688 5688 5687 5688 5686 5685 5685 5684 5684 5682 5681 5680 5679 5677 5676 5674 5671 5669 5668 5666 5663
5637 5642 5651 5658 5664 5667 5669 5673 5677 5683 5688 5689 5688 5687 5687 5687 5686 5681 5680 5680 5679 5678 5679 5681 5682 5681 5683 5682 5682 5680 5680 5678 5678 5678 5676 5675 5673 5671 5668 5666 5664 5664 5661
5626 5632 5639 5645 5651 5658 5662 5665 5671 5676 5680 5685 5682 5682 5681 5682 5683 5679 5675 5673 5673 5672 5672 5672 5674 5675 5675 5676 5677 5677 5676 5675 5674 5673 5673 5672 5671 5668 5665 5663 5662 5661 5658
5618 5624 5631 5636 5642 5646 5652 5655 5658 5664 5672 5677 5679 5678 5680 5678 5679 5678 5673 5671 5668 5668 5667 5668 5669 5669 5670 5669 5672 5671 5671 5670 5670 5669 5669 5668 5667 5666 5664 5661 5660 5658 5654
5609 5614 5620 5627 5631 5634 5638 5643 5647 5655 5664 5667 5673 5674 5678 5676 5676 5674 5672 5670 5668 5667 5668 5664 5662 5663 5664 5664 5660 5660 5661 5664 5665 5665 5664 5664 5663 5660 5660 5659 5655 5653 5651
5600 5605 5610 5615 5619 5623 5629 5635 5641 5647 5654 5660 5666 5669 5674 5669 5669 5666 5667 5666 5665 5662 5661 5659 5662 5659 5659 5661 5659 5655 5651 5655 5657 5657 5658 5657 5657 5654 5654 5654 5649 5647 5645
5588 5593 5594 5602 5607 5611 5614 5622 5627 5633 5638 5644 5648 5656 5662 5665 5666 5666 5663 5661 5661 5656 5655 5656 5655 5657 5656 5654 5656 5655 5645 5649 5649 5650 5651 5651 5650 5648 5648 5647 5645 5642 5640
5578 5575 5579 5586 5591 5597 5600 5607 5616 5623 5628 5639 5645 5651 5657 5659 5664 5665 5664 5660 5659 5656 5654 5651 5651 5652 5652 5649 5647 5653 5655 5654 5647 5642 5644 5644 5644 5642 5642 5642 5640 5638 5634
5559 5560 5564 5569 5574 5582 5587 5594 5601 5609 5618 5626 5630 5639 5645 5649 5654 5658 5660 5659 5656 5653 5653 5648 5645 5644 5647 5649 5647 5644 5645 5645 5646 5644 5638 5637 5636 5636 5636 5636 5633 5631 5629
5537 5539 5541 5547 5554 5561 5571 5577 5583 5592 5601 5609 5618 5626 5633 5641 5645 5652 5653 5656 5658 5654 5652 5646 5643 5637 5641 5644 5643 5642 5644 5642 5640 5639 5635 5632 5632 5630 5628 5629 5627 5626 5624